Time,TemperatureF,DewpointF,PressureIn,WindDirection,WindDirectionDegrees,WindSpeedMPH,WindSpeedGustMPH,Humidity,HourlyPrecipIn,Conditions,Clouds,dailyrainin,SoftwareType,DateUTC
2013-12-26 00:00:00,17.1,14.7,30.04,WSW,254,2.0,2.0,90,0.00,,,0.00,Wunderground v.1.15,2013-12-26 06:00:00,
2013-12-26 00:10:00,17.1,14.7,30.05,West,261,2.0,3.0,90,0.00,,,0.00,Wunderground v.1.15,2013-12-26 06:10:00,
2013-12-26 00:20:00,17.1,14.7,30.04,West,265,2.0,2.0,90,0.00,,,0.00,Wunderground v.1.15,2013-12-26 06:20:00,
2013-12-26 00:25:00,17.2,14.8,30.04,WNW,296,2.0,2.0,90,0.00,,,0.00,Wunderground v.1.15,2013-12-26 06:25:00,
2013-12-26 00:35:00,17.1,14.7,30.04,WSW,249,2.0,2.0,90,0.00,,,0.00,Wunderground v.1.15,2013-12-26 06:35:00,
2013-12-26 00:45:00,17.1,14.7,30.04,West,267,2.0,2.0,90,0.00,,,0.00,Wunderground v.1.15,2013-12-26 06:45:00,
2013-12-26 00:55:00,17.0,14.6,30.04,West,267,2.0,2.0,90,0.00,,,0.00,Wunderground v.1.15,2013-12-26 06:55:00,
2013-12-26 01:00:00,16.9,14.2,30.04,WNW,282,2.0,3.0,89,0.00,,,0.00,Wunderground v.1.15,2013-12-26 07:00:00,
2013-12-26 01:10:00,16.6,13.9,30.04,WNW,282,3.0,3.0,89,0.00,,,0.00,Wunderground v.1.15,2013-12-26 07:10:00,
2013-12-26 01:20:00,16.4,14.0,30.05,West,274,2.0,2.0,90,0.00,,,0.00,Wunderground v.1.15,2013-12-26 07:20:00,
2013-12-26 01:25:00,16.4,13.7,30.05,West,265,2.0,2.0,89,0.00,,,0.00,Wunderground v.1.15,2013-12-26 07:25:00,
2013-12-26 01:30:00,16.3,13.6,30.05,West,277,2.0,2.0,89,0.00,,,0.00,Wunderground v.1.15,2013-12-26 07:30:00,
2013-12-26 01:40:00,16.2,13.5,30.06,WSW,254,2.0,2.0,89,0.00,,,0.00,Wunderground v.1.15,2013-12-26 07:40:00,
2013-12-26 01:50:00,16.2,13.5,30.06,West,267,2.0,2.0,89,0.00,,,0.00,Wunderground v.1.15,2013-12-26 07:50:00,
2013-12-26 02:00:00,16.1,13.4,30.07,West,263,3.0,3.0,89,0.00,,,0.00,Wunderground v.1.15,2013-12-26 08:00:00,
2013-12-26 02:10:00,16.0,13.3,30.07,WNW,295,3.0,3.0,89,0.00,,,0.00,Wunderground v.1.15,2013-12-26 08:10:00,
2013-12-26 02:15:00,15.8,13.1,30.07,West,275,2.0,3.0,89,0.00,,,0.00,Wunderground v.1.15,2013-12-26 08:15:00,
2013-12-26 02:20:00,15.7,13.0,30.07,West,279,2.0,2.0,89,0.00,,,0.00,Wunderground v.1.15,2013-12-26 08:20:00,
2013-12-26 02:25:00,15.4,12.7,30.08,West,280,2.0,2.0,89,0.00,,,0.00,Wunderground v.1.15,2013-12-26 08:25:00,
2013-12-26 02:35:00,15.1,12.2,30.08,WNW,284,3.0,3.0,88,0.00,,,0.00,Wunderground v.1.15,2013-12-26 08:35:00,
2013-12-26 02:40:00,14.9,12.2,30.08,West,276,3.0,3.0,89,0.00,,,0.00,Wunderground v.1.15,2013-12-26 08:40:00,
2013-12-26 02:50:00,14.7,11.8,30.07,West,273,2.0,2.0,88,0.00,,,0.00,Wunderground v.1.15,2013-12-26 08:50:00,
2013-12-26 02:55:00,14.5,11.6,30.08,West,267,2.0,5.0,88,0.00,,,0.00,Wunderground v.1.15,2013-12-26 08:55:00,
2013-12-26 03:00:00,14.2,11.3,30.07,West,267,2.0,4.0,88,0.00,,,0.00,Wunderground v.1.15,2013-12-26 09:00:00,
2013-12-26 03:10:00,13.7,10.8,30.07,West,259,2.0,2.0,88,0.00,,,0.00,Wunderground v.1.15,2013-12-26 09:10:00,
2013-12-26 03:20:00,13.3,10.4,30.08,West,279,1.0,2.0,88,0.00,,,0.00,Wunderground v.1.15,2013-12-26 09:20:00,
2013-12-26 03:25:00,13.1,10.2,30.08,WNW,283,1.0,3.0,88,0.00,,,0.00,Wunderground v.1.15,2013-12-26 09:25:00,
2013-12-26 03:30:00,12.8,9.9,30.09,WSW,254,2.0,2.0,88,0.00,,,0.00,Wunderground v.1.15,2013-12-26 09:30:00,
2013-12-26 03:35:00,12.5,9.6,30.09,West,273,2.0,2.0,88,0.00,,,0.00,Wunderground v.1.15,2013-12-26 09:35:00,
2013-12-26 03:45:00,12.4,9.8,30.09,WNW,292,3.0,3.0,89,0.00,,,0.00,Wunderground v.1.15,2013-12-26 09:45:00,
2013-12-26 03:55:00,12.3,9.7,30.09,WNW,282,2.0,3.0,89,0.00,,,0.00,Wunderground v.1.15,2013-12-26 09:55:00,
2013-12-26 04:00:00,12.3,9.7,30.09,West,276,2.0,2.0,89,0.00,,,0.00,Wunderground v.1.15,2013-12-26 10:00:00,
2013-12-26 04:10:00,12.2,9.3,30.09,WNW,298,2.0,2.0,88,0.00,,,0.00,Wunderground v.1.15,2013-12-26 10:10:00,
2013-12-26 04:20:00,12.3,9.4,30.09,West,277,2.0,5.0,88,0.00,,,0.00,Wunderground v.1.15,2013-12-26 10:20:00,
2013-12-26 04:25:00,12.3,9.4,30.09,WNW,286,2.0,5.0,88,0.00,,,0.00,Wunderground v.1.15,2013-12-26 10:25:00,
2013-12-26 04:30:00,12.4,9.5,30.09,West,275,2.0,2.0,88,0.00,,,0.00,Wunderground v.1.15,2013-12-26 10:30:00,
2013-12-26 04:35:00,12.5,9.6,30.09,WNW,282,2.0,2.0,88,0.00,,,0.00,Wunderground v.1.15,2013-12-26 10:35:00,
2013-12-26 04:45:00,12.5,9.6,30.10,West,275,2.0,2.0,88,0.00,,,0.00,Wunderground v.1.15,2013-12-26 10:45:00,
2013-12-26 04:55:00,12.4,9.5,30.10,West,275,2.0,2.0,88,0.00,,,0.00,Wunderground v.1.15,2013-12-26 10:55:00,
2013-12-26 05:00:00,12.4,9.5,30.10,West,279,2.0,2.0,88,0.00,,,0.00,Wunderground v.1.15,2013-12-26 11:00:00,
2013-12-26 05:10:00,12.3,9.2,30.10,WNW,282,2.0,2.0,87,0.00,,,0.00,Wunderground v.1.15,2013-12-26 11:10:00,
2013-12-26 05:15:00,12.3,9.2,30.10,WNW,291,2.0,2.0,87,0.00,,,0.00,Wunderground v.1.15,2013-12-26 11:15:00,
2013-12-26 05:25:00,11.8,8.7,30.11,West,265,1.0,2.0,87,0.00,,,0.00,Wunderground v.1.15,2013-12-26 11:25:00,
2013-12-26 05:30:00,11.5,8.4,30.11,West,268,2.0,2.0,87,0.00,,,0.00,Wunderground v.1.15,2013-12-26 11:30:00,
2013-12-26 05:35:00,11.4,8.3,30.11,West,274,2.0,2.0,87,0.00,,,0.00,Wunderground v.1.15,2013-12-26 11:35:00,
2013-12-26 05:45:00,11.2,8.1,30.12,West,269,2.0,3.0,87,0.00,,,0.00,Wunderground v.1.15,2013-12-26 11:45:00,
2013-12-26 05:55:00,10.9,7.8,30.13,West,280,2.0,2.0,87,0.00,,,0.00,Wunderground v.1.15,2013-12-26 11:55:00,
2013-12-26 06:00:00,10.6,7.2,30.13,West,278,1.0,2.0,86,0.00,,,0.00,Wunderground v.1.15,2013-12-26 12:00:00,
2013-12-26 06:10:00,10.4,7.3,30.13,West,273,2.0,2.0,87,0.00,,,0.00,Wunderground v.1.15,2013-12-26 12:10:00,
2013-12-26 06:15:00,10.3,7.2,30.13,WNW,284,2.0,2.0,87,0.00,,,0.00,Wunderground v.1.15,2013-12-26 12:15:00,
2013-12-26 06:25:00,9.9,6.8,30.14,West,272,1.0,2.0,87,0.00,,,0.00,Wunderground v.1.15,2013-12-26 12:25:00,
2013-12-26 06:35:00,9.6,6.5,30.13,West,267,1.0,1.0,87,0.00,,,0.00,Wunderground v.1.15,2013-12-26 12:35:00,
2013-12-26 06:40:00,9.5,6.4,30.13,West,267,0.0,1.0,87,0.00,,,0.00,Wunderground v.1.15,2013-12-26 12:40:00,
2013-12-26 06:50:00,8.8,5.7,30.14,WSW,254,1.0,1.0,87,0.00,,,0.00,Wunderground v.1.15,2013-12-26 12:50:00,
2013-12-26 06:55:00,8.8,6.0,30.14,WSW,257,2.0,3.0,88,0.00,,,0.00,Wunderground v.1.15,2013-12-26 12:55:00,
2013-12-26 07:05:00,9.0,6.2,30.15,WSW,256,2.0,3.0,88,0.00,,,0.00,Wunderground v.1.15,2013-12-26 13:05:00,
2013-12-26 07:15:00,8.7,5.9,30.16,West,271,2.0,3.0,88,0.00,,,0.00,Wunderground v.1.15,2013-12-26 13:15:00,
2013-12-26 07:20:00,8.7,5.9,30.16,WSW,256,2.0,2.0,88,0.00,,,0.00,Wunderground v.1.15,2013-12-26 13:20:00,
2013-12-26 07:30:00,8.4,5.6,30.17,WSW,254,2.0,2.0,88,0.00,,,0.00,Wunderground v.1.15,2013-12-26 13:30:00,
2013-12-26 07:35:00,8.3,5.5,30.17,WSW,255,2.0,2.0,88,0.00,,,0.00,Wunderground v.1.15,2013-12-26 13:35:00,
2013-12-26 07:45:00,8.1,5.3,30.17,West,263,2.0,3.0,88,0.00,,,0.00,Wunderground v.1.15,2013-12-26 13:45:00,
2013-12-26 07:55:00,8.0,5.2,30.17,WNW,282,1.0,2.0,88,0.00,,,0.00,Wunderground v.1.15,2013-12-26 13:55:00,
2013-12-26 08:00:00,8.0,5.2,30.17,West,265,1.0,2.0,88,0.00,,,0.00,Wunderground v.1.15,2013-12-26 14:00:00,
2013-12-26 08:10:00,8.1,5.3,30.17,West,259,2.0,2.0,88,0.00,,,0.00,Wunderground v.1.15,2013-12-26 14:10:00,
2013-12-26 08:20:00,8.7,5.9,30.17,West,274,1.0,1.0,88,0.00,,,0.00,Wunderground v.1.15,2013-12-26 14:20:00,
2013-12-26 08:25:00,9.2,6.4,30.18,West,271,2.0,2.0,88,0.00,,,0.00,Wunderground v.1.15,2013-12-26 14:25:00,
2013-12-26 08:30:00,9.8,7.0,30.18,WNW,288,3.0,3.0,88,0.00,,,0.00,Wunderground v.1.15,2013-12-26 14:30:00,
2013-12-26 08:40:00,10.4,7.3,30.18,West,272,3.0,3.0,87,0.00,,,0.00,Wunderground v.1.15,2013-12-26 14:40:00,
2013-12-26 08:45:00,10.5,7.1,30.18,WNW,284,3.0,3.0,86,0.00,,,0.00,Wunderground v.1.15,2013-12-26 14:45:00,
2013-12-26 08:50:00,10.7,7.3,30.18,West,259,2.0,5.0,86,0.00,,,0.00,Wunderground v.1.15,2013-12-26 14:50:00,
2013-12-26 09:00:00,11.0,7.6,30.18,West,281,3.0,3.0,86,0.00,,,0.00,Wunderground v.1.15,2013-12-26 15:00:00,
2013-12-26 09:10:00,11.4,7.8,30.18,WNW,297,3.0,3.0,85,0.00,,,0.00,Wunderground v.1.15,2013-12-26 15:10:00,
2013-12-26 09:15:00,11.6,7.7,30.19,West,279,3.0,5.0,84,0.00,,,0.00,Wunderground v.1.15,2013-12-26 15:15:00,
2013-12-26 09:20:00,11.7,7.8,30.19,WNW,290,4.0,4.0,84,0.00,,,0.00,Wunderground v.1.15,2013-12-26 15:20:00,
2013-12-26 09:30:00,11.8,7.6,30.20,WNW,294,2.0,2.0,83,0.00,,,0.00,Wunderground v.1.15,2013-12-26 15:30:00,
2013-12-26 09:35:00,12.1,7.9,30.20,WNW,294,1.0,2.0,83,0.00,,,0.00,Wunderground v.1.15,2013-12-26 15:35:00,
2013-12-26 09:45:00,12.5,8.3,30.21,NW,322,3.0,5.0,83,0.00,,,0.00,Wunderground v.1.15,2013-12-26 15:45:00,
2013-12-26 09:55:00,12.8,8.3,30.21,WNW,290,4.0,4.0,82,0.00,,,0.00,Wunderground v.1.15,2013-12-26 15:55:00,
2013-12-26 10:00:00,13.0,8.3,30.21,West,271,4.0,4.0,81,0.00,,,0.00,Wunderground v.1.15,2013-12-26 16:00:00,
2013-12-26 10:10:00,13.3,8.6,30.20,WSW,240,3.0,3.0,81,0.00,,,0.00,Wunderground v.1.15,2013-12-26 16:10:00,
2013-12-26 10:20:00,13.5,8.5,30.20,NW,325,2.0,2.0,80,0.00,,,0.00,Wunderground v.1.15,2013-12-26 16:20:00,
2013-12-26 10:30:00,13.6,8.3,30.21,WSW,250,3.0,3.0,79,0.00,,,0.00,Wunderground v.1.15,2013-12-26 16:30:00,
2013-12-26 10:35:00,14.1,8.8,30.20,WSW,254,4.0,5.0,79,0.00,,,0.00,Wunderground v.1.15,2013-12-26 16:35:00,
2013-12-26 10:40:00,14.5,8.9,30.20,West,265,4.0,4.0,78,0.00,,,0.00,Wunderground v.1.15,2013-12-26 16:40:00,
2013-12-26 10:50:00,14.8,8.9,30.19,West,261,3.0,3.0,77,0.00,,,0.00,Wunderground v.1.15,2013-12-26 16:50:00,
2013-12-26 10:55:00,14.8,8.6,30.20,WSW,250,4.0,5.0,76,0.00,,,0.00,Wunderground v.1.15,2013-12-26 16:55:00,
2013-12-26 11:05:00,15.3,9.1,30.20,WSW,244,4.0,5.0,76,0.00,,,0.00,Wunderground v.1.15,2013-12-26 17:05:00,
2013-12-26 11:10:00,15.6,9.1,30.20,WSW,257,4.0,5.0,75,0.00,,,0.00,Wunderground v.1.15,2013-12-26 17:10:00,
2013-12-26 11:15:00,15.7,8.9,30.19,SW,229,4.0,5.0,74,0.00,,,0.00,Wunderground v.1.15,2013-12-26 17:15:00,
2013-12-26 11:25:00,15.6,8.5,30.19,WNW,290,4.0,4.0,73,0.00,,,0.00,Wunderground v.1.15,2013-12-26 17:25:00,
2013-12-26 11:30:00,15.5,8.4,30.19,West,268,4.0,4.0,73,0.00,,,0.00,Wunderground v.1.15,2013-12-26 17:30:00,
2013-12-26 11:35:00,15.5,8.4,30.19,West,275,4.0,5.0,73,0.00,,,0.00,Wunderground v.1.15,2013-12-26 17:35:00,
2013-12-26 11:45:00,15.3,8.2,30.19,WNW,282,6.0,7.0,73,0.00,,,0.00,Wunderground v.1.15,2013-12-26 17:45:00,
2013-12-26 11:50:00,15.3,8.2,30.19,West,263,6.0,6.0,73,0.00,,,0.00,Wunderground v.1.15,2013-12-26 17:50:00,
2013-12-26 12:00:00,15.4,8.3,30.19,WSW,246,4.0,4.0,73,0.00,,,0.00,Wunderground v.1.15,2013-12-26 18:00:00,
2013-12-26 12:10:00,15.3,7.9,30.19,WSW,249,5.0,5.0,72,0.00,,,0.00,Wunderground v.1.15,2013-12-26 18:10:00,
2013-12-26 12:29:00,15.4,8.3,30.19,West,262,4.0,4.0,73,0.00,,,0.00,Wunderground v.1.15,2013-12-26 18:29:00,
2013-12-26 12:35:00,15.5,8.4,30.19,West,267,4.0,4.0,73,0.00,,,0.00,Wunderground v.1.15,2013-12-26 18:35:00,
2013-12-26 12:45:00,15.4,8.3,30.19,SW,224,3.0,5.0,73,0.00,,,0.00,Wunderground v.1.15,2013-12-26 18:45:00,
2013-12-26 12:50:00,15.5,8.4,30.19,WSW,246,3.0,4.0,73,0.00,,,0.00,Wunderground v.1.15,2013-12-26 18:50:00,
2013-12-26 12:55:00,15.8,8.7,30.18,WNW,286,3.0,4.0,73,0.00,,,0.00,Wunderground v.1.15,2013-12-26 18:55:00,
2013-12-26 13:00:00,15.8,8.4,30.18,West,262,3.0,6.0,72,0.00,,,0.00,Wunderground v.1.15,2013-12-26 19:00:00,
2013-12-26 13:10:00,15.8,8.4,30.18,WSW,240,3.0,3.0,72,0.00,,,0.00,Wunderground v.1.15,2013-12-26 19:10:00,
2013-12-26 13:20:00,16.2,8.8,30.18,WSW,240,4.0,4.0,72,0.00,,,0.00,Wunderground v.1.15,2013-12-26 19:20:00,
2013-12-26 13:30:00,16.0,8.6,30.18,SW,234,4.0,4.0,72,0.00,,,0.00,Wunderground v.1.15,2013-12-26 19:30:00,
2013-12-26 13:35:00,16.1,8.7,30.18,SW,234,4.0,4.0,72,0.00,,,0.00,Wunderground v.1.15,2013-12-26 19:35:00,
2013-12-26 13:45:00,16.1,8.7,30.18,West,263,4.0,6.0,72,0.00,,,0.00,Wunderground v.1.15,2013-12-26 19:45:00,
2013-12-26 13:50:00,16.3,8.9,30.18,WSW,244,3.0,3.0,72,0.00,,,0.00,Wunderground v.1.15,2013-12-26 19:50:00,
2013-12-26 14:00:00,16.3,8.9,30.18,WSW,245,4.0,7.0,72,0.00,,,0.00,Wunderground v.1.15,2013-12-26 20:00:00,
2013-12-26 14:10:00,16.3,8.9,30.19,West,267,4.0,4.0,72,0.00,,,0.00,Wunderground v.1.15,2013-12-26 20:10:00,
2013-12-26 14:15:00,16.3,8.9,30.18,WSW,255,3.0,4.0,72,0.00,,,0.00,Wunderground v.1.15,2013-12-26 20:15:00,
2013-12-26 14:20:00,16.4,8.9,30.18,West,273,3.0,3.0,72,0.00,,,0.00,Wunderground v.1.15,2013-12-26 20:20:00,
2013-12-26 14:30:00,16.4,8.9,30.18,West,271,4.0,4.0,72,0.00,,,0.00,Wunderground v.1.15,2013-12-26 20:30:00,
2013-12-26 14:35:00,16.4,8.9,30.18,WNW,282,3.0,4.0,72,0.00,,,0.00,Wunderground v.1.15,2013-12-26 20:35:00,
2013-12-26 14:45:00,16.6,9.1,30.19,West,273,3.0,3.0,72,0.00,,,0.00,Wunderground v.1.15,2013-12-26 20:45:00,
2013-12-26 14:55:00,16.6,8.8,30.19,West,265,3.0,4.0,71,0.00,,,0.00,Wunderground v.1.15,2013-12-26 20:55:00,
2013-12-26 15:00:00,16.3,8.5,30.19,West,279,3.0,3.0,71,0.00,,,0.00,Wunderground v.1.15,2013-12-26 21:00:00,
2013-12-26 15:10:00,16.1,8.7,30.19,WSW,245,1.0,1.0,72,0.00,,,0.00,Wunderground v.1.15,2013-12-26 21:10:00,
2013-12-26 15:15:00,16.2,8.8,30.19,WSW,240,1.0,1.0,72,0.00,,,0.00,Wunderground v.1.15,2013-12-26 21:15:00,
2013-12-26 15:25:00,16.2,8.8,30.19,West,267,0.0,1.0,72,0.00,,,0.00,Wunderground v.1.15,2013-12-26 21:25:00,
2013-12-26 15:35:00,16.1,8.7,30.19,West,267,0.0,0.0,72,0.00,,,0.00,Wunderground v.1.15,2013-12-26 21:35:00,
2013-12-26 15:40:00,16.0,8.6,30.19,West,273,0.0,0.0,72,0.00,,,0.00,Wunderground v.1.15,2013-12-26 21:40:00,
2013-12-26 15:45:00,15.8,8.4,30.19,West,267,1.0,1.0,72,0.00,,,0.00,Wunderground v.1.15,2013-12-26 21:45:00,
2013-12-26 15:50:00,15.8,8.4,30.20,West,267,0.0,0.0,72,0.00,,,0.00,Wunderground v.1.15,2013-12-26 21:50:00,
2013-12-26 15:55:00,15.6,8.2,30.20,West,267,0.0,1.0,72,0.00,,,0.00,Wunderground v.1.15,2013-12-26 21:55:00,
2013-12-26 16:05:00,14.6,7.2,30.20,West,267,0.0,0.0,72,0.00,,,0.00,Wunderground v.1.15,2013-12-26 22:05:00,
2013-12-26 16:10:00,14.1,7.0,30.20,West,267,0.0,0.0,73,0.00,,,0.00,Wunderground v.1.15,2013-12-26 22:10:00,
2013-12-26 16:15:00,13.7,6.9,30.20,West,267,0.0,0.0,74,0.00,,,0.00,Wunderground v.1.15,2013-12-26 22:15:00,
2013-12-26 16:25:00,13.3,7.1,30.20,West,267,0.0,0.0,76,0.00,,,0.00,Wunderground v.1.15,2013-12-26 22:25:00,
2013-12-26 16:35:00,13.1,7.2,30.20,West,267,0.0,0.0,77,0.00,,,0.00,Wunderground v.1.15,2013-12-26 22:35:00,
2013-12-26 16:40:00,13.1,7.2,30.20,West,267,0.0,0.0,77,0.00,,,0.00,Wunderground v.1.15,2013-12-26 22:40:00,
2013-12-26 16:45:00,13.1,7.5,30.20,West,267,0.0,0.0,78,0.00,,,0.00,Wunderground v.1.15,2013-12-26 22:45:00,
2013-12-26 16:50:00,13.0,7.4,30.21,West,267,0.0,0.0,78,0.00,,,0.00,Wunderground v.1.15,2013-12-26 22:50:00,
2013-12-26 17:00:00,12.9,7.6,30.21,West,267,0.0,0.0,79,0.00,,,0.00,Wunderground v.1.15,2013-12-26 23:00:00,
2013-12-26 17:10:00,12.9,7.6,30.21,West,267,0.0,0.0,79,0.00,,,0.00,Wunderground v.1.15,2013-12-26 23:10:00,
2013-12-26 17:15:00,13.0,8.0,30.21,West,267,0.0,0.0,80,0.00,,,0.00,Wunderground v.1.15,2013-12-26 23:15:00,
2013-12-26 17:20:00,13.0,8.0,30.21,West,267,0.0,0.0,80,0.00,,,0.00,Wunderground v.1.15,2013-12-26 23:20:00,
2013-12-26 17:25:00,12.9,7.9,30.21,West,267,0.0,0.0,80,0.00,,,0.00,Wunderground v.1.15,2013-12-26 23:25:00,
2013-12-26 17:35:00,12.8,8.1,30.22,West,267,0.0,0.0,81,0.00,,,0.00,Wunderground v.1.15,2013-12-26 23:35:00,
2013-12-26 17:45:00,12.7,8.0,30.22,West,267,0.0,0.0,81,0.00,,,0.00,Wunderground v.1.15,2013-12-26 23:45:00,
2013-12-26 17:50:00,12.7,8.0,30.22,West,267,0.0,0.0,81,0.00,,,0.00,Wunderground v.1.15,2013-12-26 23:50:00,
2013-12-26 18:00:00,12.7,8.0,30.22,West,267,0.0,0.0,81,0.00,,,0.00,Wunderground v.1.15,2013-12-27 00:00:00,
2013-12-26 18:10:00,12.7,8.2,30.22,West,267,0.0,0.0,82,0.00,,,0.00,Wunderground v.1.15,2013-12-27 00:10:00,
2013-12-26 18:15:00,12.7,8.2,30.22,West,267,0.0,0.0,82,0.00,,,0.00,Wunderground v.1.15,2013-12-27 00:15:00,
2013-12-26 18:25:00,12.6,8.1,30.22,West,267,0.0,0.0,82,0.00,,,0.00,Wunderground v.1.15,2013-12-27 00:25:00,
2013-12-26 18:30:00,12.6,8.1,30.23,West,267,0.0,0.0,82,0.00,,,0.00,Wunderground v.1.15,2013-12-27 00:30:00,
2013-12-26 18:35:00,12.5,8.3,30.23,West,267,0.0,0.0,83,0.00,,,0.00,Wunderground v.1.15,2013-12-27 00:35:00,
2013-12-26 18:45:00,12.5,8.3,30.23,West,267,0.0,0.0,83,0.00,,,0.00,Wunderground v.1.15,2013-12-27 00:45:00,
2013-12-26 18:50:00,12.5,8.6,30.23,West,267,0.0,0.0,84,0.00,,,0.00,Wunderground v.1.15,2013-12-27 00:50:00,
2013-12-26 18:55:00,12.4,8.5,30.23,West,267,0.0,0.0,84,0.00,,,0.00,Wunderground v.1.15,2013-12-27 00:55:00,
2013-12-26 19:00:00,12.4,8.5,30.23,West,267,0.0,0.0,84,0.00,,,0.00,Wunderground v.1.15,2013-12-27 01:00:00,
2013-12-26 19:10:00,12.3,8.4,30.23,West,267,0.0,0.0,84,0.00,,,0.00,Wunderground v.1.15,2013-12-27 01:10:00,
2013-12-26 19:20:00,12.4,8.5,30.23,West,267,0.0,0.0,84,0.00,,,0.00,Wunderground v.1.15,2013-12-27 01:20:00,
2013-12-26 19:30:00,12.5,8.6,30.23,West,267,0.0,0.0,84,0.00,,,0.00,Wunderground v.1.15,2013-12-27 01:30:00,
2013-12-26 19:40:00,12.5,8.3,30.23,West,267,0.0,0.0,83,0.00,,,0.00,Wunderground v.1.15,2013-12-27 01:40:00,
2013-12-26 19:45:00,12.5,8.3,30.23,West,267,0.0,0.0,83,0.00,,,0.00,Wunderground v.1.15,2013-12-27 01:45:00,
2013-12-26 19:50:00,12.5,8.6,30.23,West,267,0.0,0.0,84,0.00,,,0.00,Wunderground v.1.15,2013-12-27 01:50:00,
2013-12-26 20:00:00,12.6,8.7,30.24,West,267,0.0,0.0,84,0.00,,,0.00,Wunderground v.1.15,2013-12-27 02:00:00,
2013-12-26 20:10:00,12.8,8.9,30.24,West,267,0.0,0.0,84,0.00,,,0.00,Wunderground v.1.15,2013-12-27 02:10:00,
2013-12-26 20:15:00,12.8,8.9,30.23,West,267,0.0,0.0,84,0.00,,,0.00,Wunderground v.1.15,2013-12-27 02:15:00,
2013-12-26 20:25:00,12.8,8.9,30.24,West,267,0.0,0.0,84,0.00,,,0.00,Wunderground v.1.15,2013-12-27 02:25:00,
2013-12-26 20:30:00,12.7,8.8,30.24,West,267,0.0,0.0,84,0.00,,,0.00,Wunderground v.1.15,2013-12-27 02:30:00,
2013-12-26 20:40:00,12.6,8.7,30.24,West,267,0.0,0.0,84,0.00,,,0.00,Wunderground v.1.15,2013-12-27 02:40:00,
2013-12-26 20:45:00,12.6,8.7,30.24,West,267,0.0,0.0,84,0.00,,,0.00,Wunderground v.1.15,2013-12-27 02:45:00,
2013-12-26 20:50:00,12.6,8.7,30.24,West,267,0.0,0.0,84,0.00,,,0.00,Wunderground v.1.15,2013-12-27 02:50:00,
2013-12-26 21:00:00,12.6,8.7,30.24,West,267,0.0,0.0,84,0.00,,,0.00,Wunderground v.1.15,2013-12-27 03:00:00,
2013-12-26 21:10:00,12.6,8.7,30.24,West,267,0.0,0.0,84,0.00,,,0.00,Wunderground v.1.15,2013-12-27 03:10:00,
2013-12-26 21:15:00,12.6,8.9,30.24,West,267,0.0,0.0,85,0.00,,,0.00,Wunderground v.1.15,2013-12-27 03:15:00,
2013-12-26 21:25:00,12.5,8.8,30.24,West,267,0.0,0.0,85,0.00,,,0.00,Wunderground v.1.15,2013-12-27 03:25:00,
2013-12-26 21:35:00,12.5,8.8,30.25,West,267,0.0,0.0,85,0.00,,,0.00,Wunderground v.1.15,2013-12-27 03:35:00,
2013-12-26 21:40:00,12.6,8.9,30.25,West,267,0.0,0.0,85,0.00,,,0.00,Wunderground v.1.15,2013-12-27 03:40:00,
2013-12-26 21:50:00,12.5,8.8,30.25,West,267,0.0,0.0,85,0.00,,,0.00,Wunderground v.1.15,2013-12-27 03:50:00,
2013-12-26 21:55:00,12.5,8.8,30.25,West,267,0.0,0.0,85,0.00,,,0.00,Wunderground v.1.15,2013-12-27 03:55:00,
2013-12-26 22:00:00,12.5,8.8,30.25,West,267,0.0,0.0,85,0.00,,,0.00,Wunderground v.1.15,2013-12-27 04:00:00,
2013-12-26 22:10:00,12.7,9.0,30.25,West,267,0.0,0.0,85,0.00,,,0.00,Wunderground v.1.15,2013-12-27 04:10:00,
2013-12-26 22:20:00,12.9,9.5,30.25,West,267,0.0,0.0,86,0.00,,,0.00,Wunderground v.1.15,2013-12-27 04:20:00,
2013-12-26 22:25:00,13.0,9.6,30.25,West,267,0.0,0.0,86,0.00,,,0.00,Wunderground v.1.15,2013-12-27 04:25:00,
2013-12-26 22:30:00,13.0,9.6,30.25,West,267,0.0,0.0,86,0.00,,,0.00,Wunderground v.1.15,2013-12-27 04:30:00,
2013-12-26 22:35:00,13.1,9.7,30.25,West,267,0.0,0.0,86,0.00,,,0.00,Wunderground v.1.15,2013-12-27 04:35:00,
2013-12-26 22:45:00,13.2,9.8,30.25,West,267,0.0,0.0,86,0.00,,,0.00,Wunderground v.1.15,2013-12-27 04:45:00,
2013-12-26 22:50:00,13.3,9.9,30.25,West,267,0.0,0.0,86,0.00,,,0.00,Wunderground v.1.15,2013-12-27 04:50:00,
2013-12-26 22:55:00,13.4,10.0,30.25,West,267,0.0,0.0,86,0.00,,,0.00,Wunderground v.1.15,2013-12-27 04:55:00,
2013-12-26 23:00:00,13.5,10.1,30.25,West,267,0.0,0.0,86,0.00,,,0.00,Wunderground v.1.15,2013-12-27 05:00:00,
2013-12-26 23:05:00,13.6,10.2,30.25,West,267,0.0,0.0,86,0.00,,,0.00,Wunderground v.1.15,2013-12-27 05:05:00,
2013-12-26 23:10:00,13.7,10.5,30.25,West,267,0.0,0.0,87,0.00,,,0.00,Wunderground v.1.15,2013-12-27 05:10:00,
2013-12-26 23:15:00,13.7,10.5,30.25,West,267,0.0,0.0,87,0.00,,,0.00,Wunderground v.1.15,2013-12-27 05:15:00,
2013-12-26 23:20:00,13.8,10.6,30.25,West,267,0.0,0.0,87,0.00,,,0.00,Wunderground v.1.15,2013-12-27 05:20:00,
2013-12-26 23:25:00,13.9,10.7,30.25,West,267,0.0,0.0,87,0.00,,,0.00,Wunderground v.1.15,2013-12-27 05:25:00,
2013-12-26 23:30:00,13.9,10.7,30.25,West,267,0.0,0.0,87,0.00,,,0.00,Wunderground v.1.15,2013-12-27 05:30:00,
2013-12-26 23:40:00,14.0,10.6,30.25,West,267,0.0,0.0,86,0.00,,,0.00,Wunderground v.1.15,2013-12-27 05:40:00,
2013-12-26 23:50:00,14.1,10.9,30.25,West,267,0.0,0.0,87,0.00,,,0.00,Wunderground v.1.15,2013-12-27 05:50:00,